Regional Weather Roundup
Issued by NWS

Home | Current Version | Previous Version | Graphics & Text | Print | Product List | Glossary On
Versions: 1 2 3 4 5 6 7 8 9 10 11 12 13 14 15 16 17 18 19 20 21 22 23 24 25 26 27 28 29 30 31 32 33 34 35 36 37 38 39 40 41 42 43 44 45 46 47 48 49 50
000
ASUS43 KOAX 011402
RWRNE

WEATHER ROUNDUP FOR NEBRASKA
NATIONAL WEATHER SERVICE OMAHA NE
900 AM CDT TUE SEP 01 2015

NOTES: SATELLITE DATA IS BEING USED TO AUGMENT CLOUD COVER ABOVE
       12000 FEET.
       "FAIR" INDICATES FEW OR NO CLOUDS BELOW 12,000 FEET WITH NO
       SIGNIFICANT WEATHER AND/OR OBSTRUCTIONS TO VISIBILITY.

  * THESE STATIONS DO NOT REPORT WEATHER SUCH AS RAIN...SNOW OR FOG.

NEZ001>004-019>022-054>056-011500-
NEBRASKA PANHANDLE

CITY           SKY/WX    TMP DP  RH WIND       PRES   REMARKS
SCOTTSBLUFF    SUNNY     60  53  77 NW5       29.99S
ALLIANCE       MOSUNNY   68  53  58 W8        29.98R
CHADRON        SUNNY     68  50  52 W6        29.92S
KIMBALL        SUNNY     61  54  78 W5        30.05S
SIDNEY         SUNNY     65  51  60 SW6       30.04R
$$

NEZ057>060-069>072-079>082-011500-
SOUTHWEST NEBRASKA

CITY           SKY/WX    TMP DP  RH WIND       PRES   REMARKS
NORTH PLATTE   PTSUNNY   69  63  81 CALM      29.95R
IMPERIAL       MOSUNNY   66  59  78 W5        29.99S
LEXINGTON      CLOUDY    71  61  71 S5        29.93S
MCCOOK         MOSUNNY   70  62  76 W8        29.95S
$$

NEZ005>010-023>029-035>040-094-011500-
NORTH CENTRAL NEBRASKA

CITY           SKY/WX    TMP DP  RH WIND       PRES   REMARKS
VALENTINE      PTSUNNY   68  63  84 CALM      29.93F
BROKEN BOW     CLOUDY    70  61  73 CALM      29.93R
ORD            CLOUDY    68  64  87 CALM      29.92R
$$

NEZ041-046>049-061>064-073>077-083>087-011500-
SOUTH CENTRAL NEBRASKA

CITY           SKY/WX    TMP DP  RH WIND       PRES   REMARKS
GRAND ISLAND   CLOUDY    74  60  61 S12       29.94R
AURORA         CLOUDY    70  64  80 S9        29.93R
HASTINGS         N/A     71  62  73 SW8       29.95R
HEBRON         PTSUNNY   74  62  65 S9        29.96S
HOLDREGE       CLOUDY    70  57  62 SW6       29.95S
KEARNEY *      PTSUNNY   72  57  60 S12       29.94R
YORK           CLOUDY    68  64  88 S8        29.94S
$$

NEZ011>018-030>034-042>045-011500-
NORTHEAST NEBRASKA

CITY           SKY/WX    TMP DP  RH WIND       PRES   REMARKS
NORFOLK        MOSUNNY   71  64  78 S5        29.90S
ALBION         CLOUDY    67  64  87 SE5       29.92S
BLAIR          MOSUNNY   71  66  83 S10       29.94S
COLUMBUS *     PTSUNNY   72  61  68 SW5       29.93S
FREMONT        MOSUNNY   73  67  80 SE3       29.94S
TEKAMAH        MOSUNNY   72  69  90 S9        29.92S
WAYNE          PTSUNNY   71  67  87 S10       29.90S
$$

NEZ050>053-065>068-078-088>093-011500-
SOUTHEAST NEBRASKA

CITY           SKY/WX    TMP DP  RH WIND       PRES   REMARKS
LINCOLN        MOSUNNY   75  67  76 S8        29.95R
OMAHA EPPLEY   MOSUNNY   74  68  81 S9        29.95S
BEATRICE       MOSUNNY   73  66  80 S9        29.97S
FALLS CITY     SUNNY     76  67  73 S14       29.98F
NEBRASKA CITY  SUNNY     73  66  78 S10       29.98R
PLATTSMOUTH    MOSUNNY   72  67  83 SE9       29.96S
$$

NEZ044-045-051>053-067-011500-
OMAHA AREA

CITY           SKY/WX    TMP DP  RH WIND       PRES   REMARKS
OMAHA EPPLEY   MOSUNNY   74  68  81 S9        29.95S
BLAIR          MOSUNNY   71  66  83 S10       29.94S
FREMONT        MOSUNNY   73  67  80 SE3       29.94S
OFFUTT AFB     MOSUNNY   73  69  88 SE6       29.95S
PLATTSMOUTH    MOSUNNY   72  67  83 SE9       29.96S
WAHOO          FAIR      72  69  88 S7        29.94S
$$




USA.gov is the U.S. government's official web portal to all federal, state and local government web resources and services.